Missouri River (Missouri), Glasgow (06906500)

StateMissouriLatestUnknown (58100 cfs)
RiverMissouri RiverRatingObservedEstimated
Updated2026-05-05 11:30 (59 minutes ago)Flood - The river is flooding. Obstacles can be treacherous or deadly. The river should be avoided at this stage for casual trips and definitely for the inexperienced. Trips should be attempted only with protective gear and equipment.Flood(none)(none)
Discharge58100 cfs (median: 86000 cfs)High - The river is high and potentially dangerous, especially for the young and / or inexperienced. Normal stream obstacles are sometimes difficult to navigate. Extended distances can be attempted, but canoe travel may not be advisable.High(none)(none)
Height13.96 feetGood - Conditions are ideal for a canoe or kayak. Boats typically will drag on fewer than one-quarter of riffles, if at all, and portages are unnecessary or rare. Normal float lengths can be attempted without a problem.Good(none)(none)
TrendSteady (falling over 24 hours)Low - River is low but can still be floated. Some riffles are okay but most come with significant dragging and might need a portage. Float lengths should be reduced to accommodate low flow, dragging, and portages.Low(none)(none)
USGSExternal icon USGS Site (External icon Duck Duck Go Maps)Poor - River is too low to float comfortably. Most or all riffles will drag or must be portaged and some obstacles (such as slick shelf rock) cause undue problems. Avoid the river at this stage for casual paddling trips.Poor(none)(none)

Trending Data

Plot Image

Trips for Missouri River (Missouri), Glasgow (06906500)

DateStartEndDistanceConditionDischargeHeightFishingDetails

A total of 0 rows are displayed.

Condition Descriptions

Fishing Conditions

Fish Species

Notes

Classic Trip List

The classic River Trips application is still available for use. It is updated with the new system using a data retrofit. It is no longer maintained. The original River Trips application is no longer updated (as of 1 Dec 2016) but can be checked for errors or for the condition of the data before it was converted to the new system.

Gauge Data Table

ObservationHeightDischargeMaximum
Discharge
Minimum
Discharge
Mean
Discharge
P05P10P20P25P50
(Median)
P75P80P90P95
2026-05-05 11:30 13.96 58100 187000 (2019) 39400 (2023) 87600 40100 42600 48300 50300 86000 108000 110000 159000 181000
2026-05-05 10:30 13.97 58100 187000 (2019) 39400 (2023) 87600 40100 42600 48300 50300 86000 108000 110000 159000 181000
2026-05-05 09:30 13.97 58100 187000 (2019) 39400 (2023) 87600 40100 42600 48300 50300 86000 108000 110000 159000 181000
2026-05-05 08:30 13.99 58300 187000 (2019) 39400 (2023) 87600 40100 42600 48300 50300 86000 108000 110000 159000 181000
2026-05-05 07:30 14.01 58400 187000 (2019) 39400 (2023) 87600 40100 42600 48300 50300 86000 108000 110000 159000 181000
2026-05-05 06:30 14.03 58500 187000 (2019) 39400 (2023) 87600 40100 42600 48300 50300 86000 108000 110000 159000 181000
2026-05-05 05:30 13.99 58300 187000 (2019) 39400 (2023) 87600 40100 42600 48300 50300 86000 108000 110000 159000 181000
2026-05-05 04:30 14.03 58500 187000 (2019) 39400 (2023) 87600 40100 42600 48300 50300 86000 108000 110000 159000 181000
2026-05-05 03:30 14.05 58600 187000 (2019) 39400 (2023) 87600 40100 42600 48300 50300 86000 108000 110000 159000 181000
2026-05-05 02:30 14.05 58600 187000 (2019) 39400 (2023) 87600 40100 42600 48300 50300 86000 108000 110000 159000 181000
2026-05-05 01:30 14.09 58900 187000 (2019) 39400 (2023) 87600 40100 42600 48300 50300 86000 108000 110000 159000 181000
2026-05-05 00:30 14.09 58900 187000 (2019) 39400 (2023) 87600 40100 42600 48300 50300 86000 108000 110000 159000 181000
2026-05-04 23:30 14.04 58600 187000 (2019) 39400 (2023) 87600 40100 42600 48300 50300 86000 108000 110000 159000 181000
2026-05-04 22:30 14.08 58800 233000 (2019) 39700 (2023) 91200 40600 43600 48300 49500 85300 108000 136000 166000 217000
2026-05-04 21:30 14.13 59100 233000 (2019) 39700 (2023) 91200 40600 43600 48300 49500 85300 108000 136000 166000 217000
2026-05-04 20:30 14.13 59100 233000 (2019) 39700 (2023) 91200 40600 43600 48300 49500 85300 108000 136000 166000 217000
2026-05-04 19:30 14.16 59300 233000 (2019) 39700 (2023) 91200 40600 43600 48300 49500 85300 108000 136000 166000 217000
2026-05-04 18:30 14.16 59300 233000 (2019) 39700 (2023) 91200 40600 43600 48300 49500 85300 108000 136000 166000 217000
2026-05-04 17:30 14.18 59500 233000 (2019) 39700 (2023) 91200 40600 43600 48300 49500 85300 108000 136000 166000 217000
2026-05-04 16:30 14.21 59700 233000 (2019) 39700 (2023) 91200 40600 43600 48300 49500 85300 108000 136000 166000 217000
2026-05-04 15:30 14.22 59700 233000 (2019) 39700 (2023) 91200 40600 43600 48300 49500 85300 108000 136000 166000 217000
2026-05-04 14:30 14.26 60000 233000 (2019) 39700 (2023) 91200 40600 43600 48300 49500 85300 108000 136000 166000 217000
2026-05-04 13:30 14.29 60200 233000 (2019) 39700 (2023) 91200 40600 43600 48300 49500 85300 108000 136000 166000 217000
2026-05-04 12:30 14.33 60400 233000 (2019) 39700 (2023) 91200 40600 43600 48300 49500 85300 108000 136000 166000 217000
2026-05-04 11:30 14.35 60600 233000 (2019) 39700 (2023) 91200 40600 43600 48300 49500 85300 108000 136000 166000 217000
2026-05-04 10:30 14.38 60800 233000 (2019) 39700 (2023) 91200 40600 43600 48300 49500 85300 108000 136000 166000 217000
2026-05-04 09:30 14.40 60900 233000 (2019) 39700 (2023) 91200 40600 43600 48300 49500 85300 108000 136000 166000 217000
2026-05-04 08:30 14.43 61100 233000 (2019) 39700 (2023) 91200 40600 43600 48300 49500 85300 108000 136000 166000 217000
2026-05-04 07:30 14.51 61600 233000 (2019) 39700 (2023) 91200 40600 43600 48300 49500 85300 108000 136000 166000 217000
2026-05-04 06:30 14.52 61700 233000 (2019) 39700 (2023) 91200 40600 43600 48300 49500 85300 108000 136000 166000 217000
2026-05-04 05:30 14.59 62100 233000 (2019) 39700 (2023) 91200 40600 43600 48300 49500 85300 108000 136000 166000 217000
2026-05-04 04:30 14.60 62200 233000 (2019) 39700 (2023) 91200 40600 43600 48300 49500 85300 108000 136000 166000 217000
2026-05-04 03:30 14.65 62500 233000 (2019) 39700 (2023) 91200 40600 43600 48300 49500 85300 108000 136000 166000 217000
2026-05-04 02:30 14.70 62900 233000 (2019) 39700 (2023) 91200 40600 43600 48300 49500 85300 108000 136000 166000 217000
2026-05-04 01:30 14.71 62900 233000 (2019) 39700 (2023) 91200 40600 43600 48300 49500 85300 108000 136000 166000 217000
2026-05-04 00:30 14.75 63200 233000 (2019) 39700 (2023) 91200 40600 43600 48300 49500 85300 108000 136000 166000 217000
2026-05-03 23:30 14.79 63500 233000 (2019) 39700 (2023) 91200 40600 43600 48300 49500 85300 108000 136000 166000 217000

A total of 37 rows are displayed for years 2001 through 2024.